QPF
0.02 0.02 0.04 0.03 0.02 0.01 0.01 0.01 0.02 0.05 0.07 0.08 0.11 0.12 0.11 0.10 0.07 0.06 0.06 0.03 0.03 0.02 0.01 0.02 0.02 0.02 0.03 0.02 0.01 0.00 0.01 0.01 0.01 0.00 0.00 0.00 0.00 0.00 0.00 0.00 0.00 0.00 0.00 0.00
0.01 0.02 0.03 0.02 0.02 0.02 0.01 0.01 0.02 0.04 0.07 0.08 0.07 0.10 0.12 0.08 0.06 0.05 0.05 0.02 0.02 0.02 0.01 0.02 0.01 0.01 0.01 0.01 0.00 0.00 0.01 0.01 0.01 0.01 0.00 0.00 0.00 0.00 0.00 0.00 0.00 0.00 0.00 0.00
0.01 0.02 0.02 0.02 0.02 0.02 0.01 0.01 0.02 0.03 0.06 0.08 0.06 0.07 0.13 0.12 0.07 0.05 0.04 0.02 0.02 0.02 0.01 0.01 0.01 0.01 0.01 0.01 0.00 0.00 0.01 0.01 0.01 0.01 0.01 0.00 0.00 0.00 0.00 0.00 0.00 0.00 0.00 0.00
0.01 0.01 0.02 0.02 0.02 0.02 0.02 0.01 0.01 0.02 0.03 0.07 0.05 0.06 0.08 0.12 0.09 0.05 0.04 0.04 0.02 0.03 0.02 0.01 0.00 0.00 0.01 0.01 0.01 0.00 0.01 0.01 0.01 0.01 0.02 0.01 0.00 0.00 0.00 0.00 0.00 0.00 0.00 0.00
0.01 0.01 0.02 0.02 0.02 0.01 0.01 0.01 0.01 0.02 0.02 0.04 0.03 0.03 0.07 0.08 0.08 0.05 0.05 0.04 0.03 0.02 0.02 0.01 0.00 0.00 0.01 0.00 0.00 0.01 0.01 0.01 0.02 0.01 0.01 0.01 0.01 0.00 0.00 0.00 0.00 0.00 0.00 0.00
0.01 0.01 0.01 0.01 0.01 0.02 0.02 0.01 0.01 0.02 0.02 0.03 0.02 0.02 0.05 0.06 0.06 0.06 0.05 0.04 0.02 0.02 0.02 0.01 0.00 0.00 0.00 0.00 0.01 0.01 0.01 0.02 0.02 0.01 0.01 0.01 0.01 0.01 0.00 0.00 0.00 0.00 0.00 0.00
0.00 0.01 0.01 0.02 0.03 0.03 0.02 0.02 0.03 0.03 0.03 0.03 0.01 0.01 0.02 0.02 0.03 0.05 0.05 0.04 0.04 0.02 0.01 0.01 0.01 0.00 0.00 0.00 0.00 0.01 0.01 0.02 0.02 0.02 0.01 0.01 0.01 0.01 0.00 0.00 0.00 0.00 0.00 0.00
0.00 0.00 0.01 0.01 0.02 0.02 0.02 0.02 0.02 0.02 0.02 0.02 0.01 0.01 0.01 0.02 0.01 0.02 0.04 0.03 0.02 0.02 0.01 0.00 0.00 0.00 0.00 0.00 0.01 0.01 0.02 0.04 0.03 0.02 0.03 0.02 0.01 0.00 0.00 0.00 0.00 0.00 0.00 0.00
0.00 0.00 0.01 0.01 0.01 0.01 0.01 0.01 0.01 0.01 0.01 0.02 0.01 0.01 0.01 0.01 0.01 0.01 0.02 0.02 0.02 0.02 0.01 0.00 0.00 0.00 0.00 0.00 0.01 0.01 0.02 0.03 0.04 0.03 0.03 0.02 0.01 0.00 0.00 0.00 0.00 0.00 0.00 0.00
0.00 0.00 0.01 0.01 0.01 0.01 0.01 0.01 0.01 0.01 0.02 0.02 0.01 0.01 0.01 0.01 0.01 0.01 0.01 0.02 0.02 0.02 0.01 0.01 0.00 0.00 0.00 0.00 0.01 0.01 0.02 0.02 0.02 0.04 0.03 0.02 0.02 0.01 0.00 0.00 0.00 0.00 0.00 0.00
0.00 0.00 0.00 0.00 0.01 0.00 0.01 0.01 0.01 0.01 0.01 0.01 0.01 0.01 0.00 0.00 0.01 0.01 0.01 0.01 0.02 0.01 0.01 0.01 0.01 0.00 0.00 0.00 0.01 0.02 0.02 0.03 0.03 0.03 0.04 0.03 0.02 0.01 0.01 0.00 0.00 0.00 0.00 0.00
0.01 0.00 0.00 0.00 0.00 0.00 0.00 0.01 0.01 0.01 0.01 0.00 0.00 0.00 0.00 0.01 0.00 0.00 0.00 0.00 0.01 0.02 0.01 0.01 0.01 0.00 0.00 0.00 0.01 0.01 0.02 0.02 0.04 0.03 0.03 0.02 0.01 0.01 0.00 0.00 0.00 0.00 0.00 0.00
0.01 0.01 0.00 0.00 0.00 0.00 0.00 0.00 0.01 0.01 0.01 0.00 0.00 0.00 0.00 0.00 0.00 0.00 0.00 0.00 0.00 0.01 0.01 0.01 0.00 0.00 0.00 0.00 0.01 0.01 0.01 0.01 0.02 0.04 0.03 0.02 0.01 0.00 0.00 0.00 0.00 0.00 0.00 0.00
0.01 0.01 0.00 0.00 0.00 0.00 0.00 0.00 0.01 0.01 0.01 0.01 0.01 0.00 0.00 0.00 0.00 0.00 0.00 0.00 0.00 0.01 0.01 0.01 0.01 0.00 0.00 0.01 0.01 0.01 0.01 0.01 0.01 0.02 0.03 0.01 0.01 0.01 0.00 0.00 0.00 0.00 0.00 0.00
0.01 0.01 0.00 0.00 0.00 0.00 0.00 0.00 0.00 0.01 0.00 0.00 0.00 0.00 0.00 0.00 0.00 0.00 0.00 0.00 0.01 0.01 0.01 0.01 0.01 0.00 0.00 0.00 0.01 0.02 0.01 0.00 0.00 0.01 0.02 0.01 0.01 0.01 0.01 0.00 0.00 0.00 0.00 0.00
0.01 0.01 0.01 0.00 0.00 0.00 0.00 0.00 0.00 0.00 0.00 0.00 0.00 0.00 0.00 0.00 0.00 0.00 0.00 0.00 0.00 0.01 0.01 0.01 0.01 0.00 0.00 0.00 0.01 0.01 0.00 0.00 0.00 0.00 0.01 0.02 0.02 0.01 0.01 0.00 0.00 0.00 0.00 0.00
0.00 0.00 0.00 0.00 0.00 0.00 0.00 0.00 0.00 0.00 0.00 0.00 0.00 0.00 0.00 0.00 0.00 0.00 0.00 0.00 0.00 0.00 0.01 0.01 0.01 0.00 0.00 0.00 0.01 0.01 0.00 0.00 0.00 0.00 0.00 0.01 0.02 0.01 0.01 0.00 0.00 0.00 0.00 0.00
0.00 0.00 0.00 0.00 0.00 0.00 0.00 0.00 0.00 0.00 0.00 0.00 0.00 0.00 0.00 0.00 0.00 0.00 0.00 0.01 0.00 0.00 0.00 0.01 0.01 0.01 0.00 0.00 0.01 0.02 0.01 0.00 0.00 0.00 0.00 0.00 0.01 0.01 0.01 0.01 0.00 0.00 0.00 0.00
0.00 0.00 0.00 0.00 0.00 0.00 0.00 0.00 0.00 0.00 0.00 0.00 0.00 0.00 0.00 0.00 0.00 0.00 0.01 0.01 0.00 0.01 0.00 0.01 0.01 0.01 0.01 0.01 0.01 0.01 0.01 0.01 0.01 0.01 0.00 0.00 0.00 0.00 0.00 0.00 0.00 0.00 0.00 0.01
0.00 0.00 0.00 0.00 0.00 0.00 0.00 0.00 0.00 0.00 0.00 0.00 0.00 0.00 0.00 0.00 0.00 0.00 0.00 0.01 0.01 0.01 0.00 0.01 0.01 0.01 0.01 0.02 0.02 0.01 0.00 0.00 0.00 0.00 0.00 0.00 0.00 0.00 0.00 0.00 0.00 0.00 0.00 0.01
0.00 0.00 0.00 0.00 0.00 0.00 0.00 0.00 0.00 0.00 0.00 0.00 0.00 0.00 0.00 0.00 0.00 0.00 0.00 0.00 0.00 0.00 0.00 0.01 0.01 0.01 0.01 0.02 0.01 0.01 0.01 0.00 0.01 0.01 0.00 0.00 0.00 0.00 0.00 0.00 0.00 0.00 0.01 0.01
0.01 0.01 0.00 0.00 0.00 0.00 0.00 0.00 0.00 0.00 0.00 0.00 0.00 0.00 0.00 0.00 0.01 0.00 0.00 0.00 0.00 0.00 0.00 0.01 0.01 0.01 0.01 0.02 0.01 0.01 0.00 0.01 0.00 0.00 0.00 0.00 0.00 0.00 0.00 0.00 0.00 0.01 0.01 0.00
0.00 0.00 0.00 0.00 0.00 0.00 0.00 0.00 0.00 0.00 0.00 0.00 0.00 0.00 0.00 0.00 0.00 0.00 0.00 0.00 0.00 0.00 0.00 0.01 0.01 0.02 0.02 0.02 0.01 0.00 0.00 0.00 0.00 0.00 0.00 0.00 0.00 0.00 0.01 0.01 0.00 0.00 0.00 0.00
0.00 0.00 0.00 0.00 0.00 0.00 0.00 0.00 0.00 0.00 0.00 0.00 0.00 0.00 0.00 0.00 0.00 0.00 0.00 0.00 0.00 0.00 0.00 0.01 0.01 0.01 0.01 0.01 0.01 0.00 0.00 0.00 0.00 0.00 0.00 0.00 0.00 0.00 0.00 0.00 0.00 0.00 0.00 0.00
0.00 0.00 0.00 0.00 0.00 0.00 0.00 0.00 0.00 0.00 0.00 0.00 0.00 0.00 0.00 0.00 0.00 0.00 0.00 0.00 0.00 0.00 0.00 0.00 0.01 0.02 0.02 0.01 0.01 0.01 0.01 0.01 0.01 0.01 0.00 0.00 0.01 0.01 0.00 0.00 0.00 0.00 0.00 0.00
0.01 0.00 0.00 0.00 0.00 0.00 0.00 0.00 0.00 0.00 0.00 0.00 0.00 0.00 0.00 0.00 0.00 0.00 0.00 0.00 0.00 0.00 0.00 0.01 0.01 0.02 0.03 0.02 0.01 0.01 0.01 0.01 0.01 0.00 0.00 0.00 0.00 0.00 0.01 0.00 0.00 0.00 0.00 0.01
MSLP
1015.96 1016.73 1017.33 1017.76 1018.08 1018.36 1018.64 1018.97 1019.35 1019.74 1020.09 1020.35 1020.46 1020.42 1020.22 1019.90 1019.54 1019.19 1018.92 1018.78 1018.76 1018.86 1019.05 1019.26 1019.45 1019.59 1019.67 1019.69 1019.66 1019.62 1019.59 1019.61 1019.68 1019.79 1019.93 1020.07 1020.18 1020.25 1020.24 1020.15 1019.99 1019.76 1019.48 1019.17
1016.81 1017.52 1018.04 1018.39 1018.65 1018.89 1019.17 1019.53 1019.95 1020.38 1020.76 1021.02 1021.10 1020.99 1020.69 1020.25 1019.77 1019.33 1019.00 1018.83 1018.84 1018.99 1019.26 1019.55 1019.82 1020.02 1020.11 1020.12 1020.06 1019.97 1019.90 1019.87 1019.91 1020.02 1020.17 1020.33 1020.46 1020.55 1020.55 1020.47 1020.30 1020.07 1019.79 1019.49
1017.46 1018.10 1018.56 1018.86 1019.10 1019.34 1019.65 1020.04 1020.51 1020.98 1021.38 1021.63 1021.66 1021.46 1021.05 1020.50 1019.90 1019.36 1018.96 1018.77 1018.78 1018.99 1019.32 1019.69 1020.03 1020.29 1020.42 1020.44 1020.38 1020.27 1020.17 1020.13 1020.16 1020.26 1020.42 1020.59 1020.74 1020.83 1020.84 1020.76 1020.59 1020.36 1020.09 1019.80
1017.93 1018.51 1018.91 1019.19 1019.43 1019.71 1020.07 1020.53 1021.05 1021.55 1021.96 1022.18 1022.14 1021.85 1021.32 1020.64 1019.93 1019.29 1018.83 1018.60 1018.62 1018.86 1019.25 1019.69 1020.10 1020.42 1020.60 1020.65 1020.60 1020.50 1020.41 1020.36 1020.40 1020.51 1020.67 1020.86 1021.01 1021.11 1021.12 1021.03 1020.86 1020.63 1020.37 1020.11
1018.26 1018.77 1019.14 1019.42 1019.70 1020.03 1020.46 1020.98 1021.55 1022.08 1022.47 1022.64 1022.53 1022.14 1021.50 1020.70 1019.88 1019.16 1018.64 1018.38 1018.41 1018.67 1019.10 1019.60 1020.07 1020.44 1020.68 1020.77 1020.75 1020.68 1020.60 1020.58 1020.62 1020.75 1020.92 1021.11 1021.27 1021.37 1021.37 1021.28 1021.11 1020.89 1020.65 1020.42
1018.49 1018.94 1019.29 1019.59 1019.91 1020.31 1020.81 1021.39 1022.00 1022.54 1022.90 1023.01 1022.82 1022.32 1021.57 1020.68 1019.78 1018.99 1018.43 1018.16 1018.19 1018.48 1018.95 1019.50 1020.02 1020.44 1020.72 1020.85 1020.87 1020.82 1020.77 1020.77 1020.83 1020.97 1021.15 1021.35 1021.51 1021.60 1021.61 1021.51 1021.35 1021.14 1020.92 1020.71
1018.64 1019.03 1019.36 1019.69 1020.06 1020.53 1021.10 1021.73 1022.36 1022.88 1023.20 1023.24 1022.96 1022.37 1021.54 1020.58 1019.62 1018.81 1018.25 1017.99 1018.04 1018.36 1018.87 1019.45 1020.01 1020.46 1020.77 1020.94 1020.98 1020.96 1020.93 1020.94 1021.01 1021.16 1021.35 1021.55 1021.72 1021.82 1021.82 1021.74 1021.58 1021.39 1021.19 1021.02
1018.69 1019.04 1019.36 1019.71 1020.14 1020.67 1021.28 1021.94 1022.57 1023.06 1023.32 1023.29 1022.93 1022.27 1021.39 1020.39 1019.44 1018.64 1018.11 1017.89 1017.99 1018.35 1018.89 1019.50 1020.09 1020.56 1020.88 1021.06 1021.11 1021.10 1021.07 1021.09 1021.18 1021.33 1021.53 1021.74 1021.92 1022.02 1022.04 1021.97 1021.83 1021.66 1021.48 1021.34
1018.63 1018.94 1019.26 1019.64 1020.12 1020.68 1021.33 1021.99 1022.59 1023.03 1023.22 1023.12 1022.70 1021.99 1021.10 1020.12 1019.21 1018.48 1018.02 1017.88 1018.04 1018.46 1019.03 1019.67 1020.26 1020.74 1021.06 1021.23 1021.28 1021.26 1021.23 1021.25 1021.34 1021.49 1021.70 1021.92 1022.10 1022.23 1022.26 1022.22 1022.10 1021.96 1021.81 1021.70
1018.43 1018.72 1019.05 1019.46 1019.97 1020.56 1021.21 1021.85 1022.40 1022.77 1022.89 1022.72 1022.26 1021.55 1020.68 1019.77 1018.94 1018.32 1017.97 1017.92 1018.17 1018.65 1019.26 1019.92 1020.51 1020.97 1021.28 1021.43 1021.46 1021.43 1021.40 1021.41 1021.50 1021.66 1021.87 1022.10 1022.31 1022.46 1022.52 1022.51 1022.42 1022.31 1022.19 1022.11
1018.10 1018.38 1018.74 1019.18 1019.70 1020.30 1020.93 1021.52 1022.00 1022.29 1022.34 1022.12 1021.63 1020.94 1020.14 1019.33 1018.63 1018.14 1017.92 1018.00 1018.33 1018.87 1019.52 1020.18 1020.76 1021.20 1021.49 1021.62 1021.64 1021.60 1021.57 1021.58 1021.67 1021.85 1022.08 1022.33 1022.56 1022.74 1022.84 1022.86 1022.81 1022.72 1022.63 1022.58
1017.70 1018.01 1018.38 1018.84 1019.38 1019.95 1020.54 1021.06 1021.45 1021.66 1021.63 1021.36 1020.88 1020.23 1019.52 1018.83 1018.28 1017.94 1017.86 1018.04 1018.46 1019.05 1019.71 1020.37 1020.93 1021.36 1021.63 1021.75 1021.77 1021.74 1021.72 1021.76 1021.87 1022.07 1022.32 1022.61 1022.87 1023.08 1023.22 1023.27 1023.25 1023.20 1023.14 1023.10
1017.33 1017.67 1018.08 1018.55 1019.06 1019.60 1020.10 1020.53 1020.82 1020.93 1020.83 1020.53 1020.06 1019.47 1018.86 1018.31 1017.90 1017.70 1017.74 1018.02 1018.50 1019.11 1019.78 1020.42 1020.96 1021.37 1021.63 1021.77 1021.81 1021.82 1021.84 1021.92 1022.09 1022.32 1022.62 1022.94 1023.24 1023.48 1023.65 1023.74 1023.76 1023.73 1023.69 1023.66
1017.11 1017.49 1017.91 1018.37 1018.84 1019.30 1019.71 1020.01 1020.18 1020.19 1020.02 1019.69 1019.24 1018.72 1018.21 1017.78 1017.51 1017.43 1017.57 1017.91 1018.41 1019.02 1019.67 1020.28 1020.80 1021.20 1021.47 1021.64 1021.73 1021.81 1021.91 1022.06 1022.29 1022.59 1022.94 1023.30 1023.64 1023.92 1024.13 1024.24 1024.29 1024.29 1024.26 1024.24
1017.16 1017.56 1017.97 1018.39 1018.78 1019.13 1019.40 1019.57 1019.61 1019.50 1019.26 1018.90 1018.47 1018.02 1017.61 1017.29 1017.12 1017.13 1017.33 1017.69 1018.19 1018.77 1019.37 1019.93 1020.42 1020.82 1021.12 1021.34 1021.52 1021.69 1021.89 1022.15 1022.47 1022.85 1023.26 1023.67 1024.05 1024.36 1024.60 1024.74 1024.82 1024.83 1024.82 1024.82
1017.51 1017.91 1018.28 1018.62 1018.90 1019.11 1019.22 1019.22 1019.12 1018.90 1018.59 1018.21 1017.80 1017.41 1017.08 1016.85 1016.77 1016.83 1017.05 1017.40 1017.85 1018.36 1018.90 1019.40 1019.86 1020.26 1020.59 1020.89 1021.17 1021.45 1021.78 1022.15 1022.57 1023.03 1023.51 1023.98 1024.40 1024.75 1025.01 1025.19 1025.29 1025.33 1025.34 1025.34
1018.16 1018.51 1018.81 1019.03 1019.16 1019.20 1019.13 1018.97 1018.71 1018.39 1018.01 1017.62 1017.23 1016.90 1016.64 1016.48 1016.45 1016.54 1016.74 1017.05 1017.43 1017.86 1018.30 1018.74 1019.16 1019.56 1019.94 1020.31 1020.69 1021.10 1021.54 1022.04 1022.57 1023.12 1023.66 1024.18 1024.64 1025.02 1025.32 1025.52 1025.66 1025.73 1025.76 1025.78
1018.99 1019.27 1019.45 1019.52 1019.48 1019.33 1019.08 1018.75 1018.36 1017.94 1017.51 1017.11 1016.76 1016.48 1016.28 1016.18 1016.18 1016.27 1016.45 1016.69 1016.98 1017.31 1017.66 1018.03 1018.40 1018.79 1019.20 1019.64 1020.11 1020.63 1021.19 1021.79 1022.41 1023.04 1023.65 1024.22 1024.72 1025.14 1025.47 1025.72 1025.89 1026.00 1026.06 1026.11
1019.85 1020.02 1020.05 1019.96 1019.73 1019.40 1018.98 1018.50 1018.00 1017.51 1017.06 1016.67 1016.36 1016.14 1016.00 1015.95 1015.97 1016.06 1016.19 1016.36 1016.56 1016.79 1017.04 1017.33 1017.66 1018.03 1018.45 1018.93 1019.47 1020.07 1020.73 1021.41 1022.11 1022.80 1023.46 1024.07 1024.61 1025.08 1025.45 1025.75 1025.97 1026.12 1026.23 1026.32
1020.55 1020.58 1020.46 1020.20 1019.81 1019.32 1018.76 1018.18 1017.60 1017.08 1016.63 1016.27 1016.02 1015.86 1015.78 1015.78 1015.82 1015.90 1016.00 1016.10 1016.22 1016.35 1016.52 1016.72 1016.99 1017.33 1017.75 1018.25 1018.82 1019.47 1020.17 1020.91 1021.66 1022.39 1023.09 1023.74 1024.33 1024.84 1025.27 1025.62 1025.90 1026.12 1026.28 1026.40
1020.93 1020.83 1020.57 1020.16 1019.64 1019.03 1018.38 1017.74 1017.14 1016.62 1016.21 1015.91 1015.72 1015.64 1015.63 1015.67 1015.74 1015.82 1015.88 1015.93 1015.98 1016.04 1016.12 1016.26 1016.46 1016.76 1017.15 1017.63 1018.21 1018.86 1019.58 1020.33 1021.10 1021.86 1022.59 1023.28 1023.90 1024.47 1024.96 1025.38 1025.72 1026.00 1026.21 1026.37
1020.91 1020.68 1020.30 1019.79 1019.18 1018.52 1017.84 1017.19 1016.62 1016.15 1015.81 1015.59 1015.48 1015.47 1015.53 1015.63 1015.72 1015.81 1015.86 1015.88 1015.88 1015.87 1015.90 1015.97 1016.11 1016.35 1016.69 1017.14 1017.68 1018.31 1019.00 1019.74 1020.50 1021.26 1022.01 1022.73 1023.40 1024.02 1024.57 1025.06 1025.47 1025.81 1026.07 1026.27
1020.47 1020.14 1019.68 1019.12 1018.48 1017.82 1017.17 1016.58 1016.08 1015.70 1015.45 1015.32 1015.31 1015.38 1015.50 1015.65 1015.78 1015.88 1015.93 1015.94 1015.91 1015.87 1015.85 1015.87 1015.96 1016.14 1016.42 1016.81 1017.29 1017.86 1018.50 1019.20 1019.94 1020.69 1021.44 1022.18 1022.89 1023.56 1024.17 1024.72 1025.19 1025.59 1025.90 1026.14
1019.68 1019.28 1018.78 1018.21 1017.60 1017.00 1016.43 1015.94 1015.56 1015.30 1015.15 1015.13 1015.21 1015.36 1015.54 1015.74 1015.90 1016.02 1016.09 1016.11 1016.08 1016.03 1015.99 1015.97 1016.02 1016.14 1016.35 1016.66 1017.07 1017.57 1018.14 1018.78 1019.48 1020.21 1020.96 1021.71 1022.45 1023.16 1023.82 1024.43 1024.95 1025.39 1025.74 1025.99
1018.64 1018.20 1017.71 1017.18 1016.65 1016.15 1015.71 1015.36 1015.11 1014.98 1014.96 1015.04 1015.20 1015.41 1015.65 1015.89 1016.09 1016.25 1016.34 1016.38 1016.38 1016.34 1016.29 1016.26 1016.28 1016.35 1016.50 1016.74 1017.06 1017.48 1017.98 1018.56 1019.20 1019.90 1020.63 1021.39 1022.15 1022.89 1023.59 1024.23 1024.78 1025.25 1025.61 1025.88
1017.49 1017.05 1016.58 1016.13 1015.71 1015.35 1015.06 1014.86 1014.76 1014.76 1014.85 1015.02 1015.26 1015.53 1015.82 1016.09 1016.34 1016.53 1016.67 1016.75 1016.78 1016.78 1016.75 1016.73 1016.73 1016.77 1016.86 1017.03 1017.28 1017.62 1018.04 1018.56 1019.15 1019.81 1020.52 1021.27 1022.04 1022.79 1023.50 1024.16 1024.73 1025.20 1025.56 1025.83
Thickness
5707 5694 5685 5689 5693 5693 5689 5684 5680 5685 5696 5693 5688 5690 5697 5702 5703 5702 5703 5705 5707 5710 5714 5717 5719 5719 5719 5718 5718 5718 5717 5716 5716 5715 5714 5712 5711 5711 5712 5713 5713 5714 5714 5714
5692 5686 5696 5701 5699 5694 5689 5682 5680 5685 5694 5691 5686 5689 5697 5701 5703 5705 5705 5705 5708 5709 5711 5713 5715 5716 5716 5715 5716 5715 5715 5715 5715 5714 5713 5711 5710 5709 5709 5709 5710 5711 5711 5712
5687 5693 5704 5700 5694 5689 5686 5682 5682 5682 5688 5689 5686 5684 5691 5699 5704 5706 5708 5709 5709 5710 5710 5711 5712 5713 5713 5713 5714 5715 5713 5713 5712 5712 5711 5709 5708 5706 5706 5705 5706 5707 5708 5708
5692 5700 5701 5696 5692 5690 5681 5692 5690 5685 5676 5669 5679 5665 5683 5692 5697 5702 5705 5707 5709 5711 5711 5711 5711 5711 5712 5713 5713 5713 5712 5711 5710 5710 5709 5707 5704 5701 5701 5701 5702 5704 5705 5705
5691 5698 5696 5692 5694 5695 5688 5695 5690 5684 5675 5668 5672 5666 5676 5690 5691 5699 5706 5709 5710 5712 5712 5711 5712 5712 5712 5712 5712 5711 5710 5709 5708 5708 5707 5705 5702 5700 5699 5700 5700 5700 5701 5701
5697 5704 5703 5699 5702 5701 5695 5687 5681 5673 5667 5657 5668 5665 5670 5684 5695 5703 5708 5711 5712 5712 5712 5712 5712 5711 5710 5710 5709 5709 5708 5706 5706 5705 5704 5703 5701 5699 5698 5697 5696 5696 5696 5697
5688 5697 5704 5706 5695 5694 5690 5672 5656 5652 5648 5651 5669 5668 5675 5700 5707 5711 5712 5713 5714 5713 5712 5710 5709 5708 5708 5707 5707 5706 5705 5704 5703 5703 5702 5701 5700 5698 5697 5695 5694 5693 5692 5692
5675 5676 5696 5702 5697 5688 5684 5676 5656 5647 5645 5652 5667 5666 5686 5708 5713 5716 5718 5717 5715 5712 5712 5711 5710 5708 5707 5706 5705 5704 5703 5702 5702 5701 5700 5699 5698 5696 5695 5693 5692 5691 5690 5690
5676 5678 5700 5705 5705 5696 5681 5674 5676 5661 5656 5652 5660 5674 5692 5708 5710 5713 5715 5714 5713 5713 5712 5711 5709 5708 5707 5706 5705 5704 5702 5700 5700 5699 5698 5696 5695 5694 5693 5691 5690 5689 5688 5688
5691 5681 5693 5701 5702 5697 5692 5680 5667 5660 5650 5647 5660 5669 5678 5697 5704 5708 5710 5711 5712 5712 5711 5710 5709 5707 5706 5706 5704 5702 5701 5699 5698 5697 5696 5695 5693 5692 5690 5689 5687 5686 5686 5685
5697 5682 5685 5691 5690 5686 5683 5678 5670 5660 5659 5650 5650 5668 5700 5703 5708 5708 5710 5712 5712 5712 5711 5709 5707 5706 5705 5703 5701 5700 5698 5697 5696 5694 5693 5692 5690 5688 5687 5685 5684 5683 5683 5682
5694 5680 5673 5684 5698 5701 5694 5685 5674 5663 5658 5657 5653 5670 5711 5711 5712 5711 5711 5713 5713 5712 5710 5708 5706 5704 5702 5700 5698 5697 5696 5695 5693 5692 5690 5688 5686 5685 5683 5681 5680 5680 5679 5678
5693 5679 5666 5670 5679 5690 5690 5687 5682 5674 5663 5654 5654 5676 5710 5710 5711 5712 5712 5711 5710 5709 5707 5705 5703 5701 5700 5698 5696 5695 5694 5692 5690 5689 5686 5684 5682 5681 5679 5677 5676 5676 5675 5674
5700 5680 5672 5668 5675 5684 5684 5686 5683 5676 5662 5659 5666 5681 5701 5705 5707 5709 5710 5710 5708 5706 5705 5703 5700 5699 5698 5696 5695 5693 5691 5689 5687 5685 5683 5680 5678 5677 5675 5673 5672 5671 5670 5670
5698 5681 5682 5684 5690 5690 5688 5689 5685 5680 5678 5672 5680 5686 5700 5706 5708 5710 5710 5708 5706 5704 5702 5701 5699 5697 5696 5694 5692 5690 5688 5686 5685 5682 5679 5677 5675 5672 5670 5668 5667 5666 5666 5665
5690 5683 5682 5683 5688 5687 5685 5689 5688 5686 5686 5684 5687 5691 5709 5710 5709 5708 5707 5707 5705 5704 5703 5702 5700 5697 5695 5693 5691 5688 5686 5684 5682 5679 5676 5674 5671 5668 5665 5663 5662 5661 5661 5660
5681 5678 5671 5668 5679 5682 5676 5690 5690 5690 5693 5691 5688 5700 5708 5705 5707 5708 5708 5708 5707 5706 5704 5702 5700 5698 5696 5694 5691 5687 5685 5682 5679 5676 5673 5671 5668 5664 5661 5660 5658 5657 5656 5655
5678 5672 5663 5661 5669 5661 5684 5703 5702 5697 5699 5701 5704 5707 5709 5710 5711 5712 5711 5709 5708 5707 5705 5702 5700 5697 5695 5693 5690 5686 5682 5679 5676 5673 5670 5668 5665 5662 5659 5657 5655 5653 5652 5650
5681 5670 5657 5652 5655 5664 5686 5700 5700 5695 5696 5706 5705 5708 5708 5709 5707 5706 5711 5711 5710 5709 5707 5704 5701 5697 5694 5691 5688 5684 5679 5676 5673 5670 5667 5665 5663 5660 5657 5654 5651 5650 5648 5646
5672 5670 5657 5649 5652 5655 5683 5704 5708 5700 5690 5709 5708 5707 5704 5703 5692 5700 5710 5710 5709 5707 5704 5701 5698 5695 5691 5688 5685 5680 5676 5673 5671 5669 5666 5664 5661 5658 5654 5652 5649 5647 5645 5642
5660 5656 5652 5647 5650 5663 5691 5702 5702 5682 5689 5711 5710 5708 5704 5701 5704 5707 5709 5708 5706 5704 5702 5699 5696 5692 5689 5686 5682 5677 5674 5671 5670 5667 5664 5661 5658 5656 5652 5648 5645 5643 5640 5637
5658 5651 5647 5644 5647 5662 5696 5695 5691 5695 5707 5710 5709 5708 5704 5703 5705 5705 5704 5703 5701 5699 5697 5695 5691 5688 5685 5683 5679 5674 5671 5670 5666 5663 5660 5656 5654 5652 5648 5644 5640 5637 5634 5630
5659 5664 5660 5661 5669 5686 5693 5696 5702 5704 5704 5706 5706 5706 5704 5701 5700 5700 5698 5697 5696 5694 5692 5690 5687 5683 5680 5678 5677 5672 5669 5665 5662 5658 5655 5652 5649 5646 5643 5639 5635 5631 5628 5625
5658 5663 5660 5661 5673 5684 5689 5694 5699 5701 5702 5704 5705 5704 5702 5698 5697 5695 5693 5691 5690 5688 5686 5684 5681 5678 5674 5672 5671 5669 5665 5662 5659 5654 5650 5646 5643 5639 5636 5634 5631 5627 5622 5618
5660 5658 5657 5660 5671 5679 5687 5690 5695 5697 5699 5700 5700 5700 5699 5696 5693 5691 5689 5687 5685 5683 5681 5679 5677 5673 5670 5668 5666 5664 5661 5658 5653 5649 5645 5641 5638 5634 5630 5627 5624 5621 5618 5615
5655 5658 5657 5662 5674 5673 5680 5690 5692 5691 5692 5694 5693 5693 5693 5692 5689 5687 5684 5682 5680 5677 5675 5673 5670 5668 5665 5663 5660 5658 5656 5653 5649 5644 5639 5636 5632 5629 5625 5620 5616 5614 5611 5609